Printer-friendly version
Follow the MPC on Twitter Follow the MPC on Facebook The MPC blog
Minor Planet Center

MPEC 2005-W64 : 2005 WY

The following Minor Planet Electronic Circular may be linked-to from your own Web pages, but must not otherwise be redistributed electronically.

A form allowing access to any MPEC is at the bottom of this page.


Read MPEC 2005-W63 Read MPEC 2005-W65


M.P.E.C. 2005-W64                                Issued 2005 Nov. 26, 17:44 UT

     The Minor Planet Electronic Circulars contain information on unusual
         minor planets and routine data on comets.  They are published
   on behalf of Commission 20 of the International Astronomical Union by the
          Minor Planet Center, Smithsonian Astrophysical Observatory,
                          Cambridge, MA 02138, U.S.A.

                  Supported in part by the Brinson Foundation
                  Supported in part by the TABASGO Foundation
             Prepared using the Tamkin Foundation Computer Network

                              MPC@CFA.HARVARD.EDU
          URL http://cfa-www.harvard.edu/iau/mpc.html  ISSN 1523-6714

                                    2005 WY

                           Revision to MPEC 2005-W39

Additional Observations:
     K05W00Y  C2005 11 25.30181 03 02 12.08 +12 26 11.1          18.3 V EW064G96
     K05W00Y  C2005 11 25.30212 03 02 12.58 +12 26 10.7          18.5 V EW064G96
     K05W00Y  C2005 11 25.30242 03 02 13.09 +12 26 10.2          18.4 V EW064G96
     K05W00Y  C2005 11 25.30272 03 02 13.59 +12 26 09.7          18.3 V EW064G96
     K05W00Y  C2005 11 25.33946 03 03 15.62 +12 25 15.7          18.5 V EW064G96
     K05W00Y  C2005 11 25.34092 03 03 18.14 +12 25 13.3          18.2 V EW064G96
     K05W00Y  C2005 11 25.34246 03 03 20.80 +12 25 10.9          18.2 V EW064G96
     K05W00Y  C2005 11 25.34406 03 03 23.54 +12 25 08.3          18.3 V EW064G96

Observer details:
G96 Mt. Lemmon Survey.  Observer E. J. Christensen.  Measurers E. C. Beshore,
    E. J. Christensen, G. J. Garradd, A. D. Grauer, R. E. Hill, R. A. Kowalski,
    S. M. Larson, R. H. McNaught.  1.5-m reflector + CCD.

Orbital elements:
2005 WY
Epoch 2006 Mar. 6.0 TT = JDT 2453800.5                  MPC
M  29.68879              (2000.0)            P               Q
n   0.41099663     Peri.  222.53504     -0.15202350     -0.98834201
a   1.7916116      Node   236.21080     +0.90948331     -0.13659519
e   0.4760756      Incl.    0.57239     +0.38694826     -0.06724455
P   2.40           H   27.1           G   0.15           U   6
Residuals in seconds of arc
051121 691  0.0   0.1+    051121 651  0.1+  0.3+    051125 G96  0.1-  0.0
051121 691  0.3-  0.2-    051121 651  0.2-  0.1+    051125 G96  0.0   0.1-
051121 691  0.3+  0.5-    051122 291  0.1+  0.0     051125 G96  0.0   0.0
051121 291  0.2+  0.3-    051122 291  0.1+  0.2+    051125 G96  0.1+  0.0
051121 291  0.0   0.2-    051122 291  0.1-  0.1+    051125 G96  0.1+  0.0
051121 291  0.0   0.3-    051125 G96  0.0   0.0     051125 G96  0.2-  0.0
051121 651  0.2-  0.6+    051125 G96  0.2-  0.1+

Ephemeris:
2005 WY                  a,e,i = 1.79, 0.48, 1                   q = 0.9387
Date    TT    R. A. (2000) Decl.     Delta      r     Elong.  Phase     V
2005 11 26.0  03 30.60   +12 08.5    0.0105   0.997   167.7    12.2    17.9
2005 11 26.5  04 02.73   +11 31.1    0.00848  0.995   170.4     9.5    17.4

2005 11 27.0  04 52.75   +10 06.6    0.00672  0.993   165.2    14.7    17.0
2005 11 27.1  05 05.79   +09 39.6    0.00642  0.993   162.7    17.2    17.0
2005 11 27.2  05 20.02   +09 08.0    0.00614  0.992   159.7    20.2    17.0
2005 11 27.3  05 35.50   +08 31.1    0.00588  0.992   156.3    23.5    17.0
2005 11 27.4  05 52.23   +07 48.5    0.00566  0.992   152.6    27.3    17.1
2005 11 27.5  06 10.18   +06 59.9    0.00546  0.991   148.4    31.4    17.1
2005 11 27.6  06 29.24   +06 05.4    0.00531  0.991   143.9    35.9    17.2
2005 11 27.7  06 49.24   +05 05.3    0.00519  0.991   139.1    40.7    17.3
2005 11 27.8  07 09.92   +04 00.4    0.00512  0.990   134.1    45.7    17.4
2005 11 27.9  07 30.98   +02 52.3    0.00508  0.990   129.0    50.8    17.5
2005 11 28.0  07 52.07   +01 42.4    0.00510  0.989   123.8    55.9    17.6
2005 11 28.1  08 12.84   +00 32.6    0.00516  0.989   118.7    61.0    17.8
2005 11 28.2  08 32.98   -00 35.2    0.00526  0.989   113.7    66.0    18.0
2005 11 28.3  08 52.21   -01 39.8    0.00540  0.988   109.0    70.7    18.2
2005 11 28.4  09 10.36   -02 40.1    0.00558  0.988   104.5    75.2    18.4
2005 11 28.5  09 27.30   -03 35.3    0.00579  0.988   100.4    79.3    18.7
2005 11 28.6  09 42.99   -04 25.3    0.00603  0.987    96.5    83.1    18.9
2005 11 28.7  09 57.43   -05 10.2    0.00630  0.987    93.0    86.6    19.1
2005 11 28.8  10 10.67   -05 50.2    0.00659  0.986    89.8    89.8    19.3
2005 11 28.9  10 22.77   -06 25.6    0.00691  0.986    86.9    92.7    19.6

2005 11 29.0  10 33.82   -06 57.0    0.00724  0.986    84.2    95.4    19.8
2005 11 29.5  11 16.23   -08 47.2    0.00909  0.984    74.2   105.3    20.8
2005 11 30.0  11 43.90   -09 49.3    0.0111   0.982    67.9   111.5    21.6
2005 11 30.5  12 02.88   -10 27.0    0.0133   0.980    63.8   115.5    22.2
2005 12 01.0  12 16.55   -10 51.4    0.0155   0.979    61.0   118.2    22.7

Brian G. Marsden             (C) Copyright 2005 MPC           M.P.E.C. 2005-W64

Read MPEC 2005-W63 Read MPEC 2005-W65


MPEC number:

Enter an MPEC number in one of the following forms:

  • 1997-B01 (the full form)
  • J97B01 (the packed version of the full form)
  • B01 (the abbreviated form)

Valid HTML 4.01!